Wetterdaten: Woche 04.01.21 - 10.01.21 (KW1)
Datum Zeit Temp. Aussen Temp. o. S. Temp +5cm Feuchte Auss Luftdruck Regen Sonnenschein Regendauer Solar Windben Empfang
04.01.2021 00:00 2,0 C 1,1 C -0,1 C 96 % 1015,4 hPa 0,0 l/m 0,00 h 0,37 h 0 W/m 0,0 km/h (0 Bft) 96,54 %
04.01.2021 01:00 1,8 C 0,9 C -0,1 C 96 % 1015,2 hPa 0,2 l/m 0,00 h 0,17 h 0 W/m 0,2 km/h (0 Bft) 95,61 %
04.01.2021 02:00 1,6 C 0,7 C -0,1 C 96 % 1015,2 hPa 0,0 l/m 0,00 h 0,00 h 0 W/m 0,1 km/h (0 Bft) 98,74 %
04.01.2021 03:00 1,5 C 0,6 C -0,1 C 96 % 1015,3 hPa 0,0 l/m 0,00 h 0,00 h 0 W/m 0,1 km/h (0 Bft) 98,46 %
04.01.2021 04:00 1,4 C 0,6 C -0,1 C 96 % 1015,3 hPa 0,0 l/m 0,00 h 0,20 h 0 W/m 0,2 km/h (0 Bft) 96,22 %
04.01.2021 05:00 1,5 C 0,6 C -0,1 C 97 % 1015,3 hPa 0,0 l/m 0,00 h 0,03 h 0 W/m 0,1 km/h (0 Bft) 99,57 %
04.01.2021 06:00 1,3 C 0,6 C -0,2 C 96 % 1015,5 hPa 0,2 l/m 0,00 h 0,23 h 0 W/m 0,0 km/h (0 Bft) 96,66 %
04.01.2021 07:00 1,3 C 0,6 C -0,1 C 97 % 1015,8 hPa 0,0 l/m 0,00 h 0,13 h 0 W/m 0,1 km/h (0 Bft) 95,88 %
04.01.2021 08:00 1,5 C 0,6 C -0,1 C 97 % 1016,3 hPa 0,0 l/m 0,00 h 0,07 h 0 W/m 0,0 km/h (0 Bft) 97,52 %
04.01.2021 09:00 1,5 C 0,8 C 0,0 C 97 % 1016,6 hPa 0,0 l/m 0,00 h 0,23 h 10 W/m 0,1 km/h (0 Bft) 95,73 %
04.01.2021 10:00 1,6 C 1,1 C 0,4 C 97 % 1016,9 hPa 0,2 l/m 0,00 h 0,10 h 12 W/m 0,1 km/h (0 Bft) 95,23 %
04.01.2021 11:00 1,8 C 1,1 C 0,6 C 97 % 1016,9 hPa 0,0 l/m 0,00 h 0,00 h 17 W/m 0,2 km/h (0 Bft) 96,14 %
04.01.2021 12:00 1,8 C 1,1 C 0,6 C 97 % 1016,6 hPa 0,0 l/m 0,00 h 0,03 h 21 W/m 0,2 km/h (0 Bft) 96,29 %
04.01.2021 13:00 2,0 C 1,7 C 1,0 C 97 % 1016,2 hPa 0,0 l/m 0,00 h 0,03 h 34 W/m 0,2 km/h (0 Bft) 95,35 %
04.01.2021 14:00 2,3 C 1,9 C 1,2 C 96 % 1015,7 hPa 0,0 l/m 0,00 h 0,00 h 34 W/m 0,4 km/h (0 Bft) 96,59 %
04.01.2021 15:00 2,5 C 2,2 C 1,2 C 95 % 1015,6 hPa 0,0 l/m 0,00 h 0,00 h 27 W/m 0,4 km/h (0 Bft) 99,79 %
04.01.2021 16:00 2,6 C 2,2 C 1,2 C 93 % 1015,7 hPa 0,0 l/m 0,00 h 0,00 h 3 W/m 0,0 km/h (0 Bft) 96,18 %
04.01.2021 17:00 2,5 C 2,2 C 0,9 C 93 % 1015,8 hPa 0,0 l/m 0,00 h 0,00 h 0 W/m 0,5 km/h (0 Bft) 99,00 %
04.01.2021 18:00 2,3 C 1,7 C 0,6 C 93 % 1015,9 hPa 0,0 l/m 0,00 h 0,00 h 0 W/m 0,3 km/h (0 Bft) 97,46 %
04.01.2021 19:00 2,2 C 1,7 C 0,6 C 93 % 1016,0 hPa 0,0 l/m 0,00 h 0,00 h 0 W/m 0,2 km/h (0 Bft) 94,93 %
04.01.2021 20:00 2,2 C 1,7 C 0,6 C 93 % 1016,0 hPa 0,0 l/m 0,00 h 0,00 h 0 W/m 0,2 km/h (0 Bft) 95,70 %
04.01.2021 21:00 2,1 C 1,7 C 0,6 C 93 % 1016,1 hPa 0,0 l/m 0,00 h 0,00 h 0 W/m 0,2 km/h (0 Bft) 96,80 %
04.01.2021 22:00 2,0 C 1,5 C 0,5 C 93 % 1016,1 hPa 0,0 l/m 0,00 h 0,00 h 0 W/m 0,4 km/h (0 Bft) 94,27 %
04.01.2021 23:00 1,9 C 1,1 C 0,2 C 93 % 1016,0 hPa 0,0 l/m 0,00 h 0,00 h 0 W/m 0,0 km/h (0 Bft) 98,79 %
05.01.2021 00:00 1,9 C 1,1 C 0,4 C 94 % 1015,8 hPa 0,0 l/m 0,00 h 0,00 h 0 W/m 0,2 km/h (0 Bft) 97,49 %
05.01.2021 01:00 1,9 C 1,6 C 0,6 C 94 % 1015,8 hPa 0,0 l/m 0,00 h 0,00 h 0 W/m 0,2 km/h (0 Bft) 90,88 %
05.01.2021 02:00 1,9 C 1,4 C 0,6 C 94 % 1015,9 hPa 0,0 l/m 0,00 h 0,00 h 0 W/m 0,3 km/h (0 Bft) 97,09 %
05.01.2021 03:00 1,9 C 1,6 C 0,6 C 94 % 1015,9 hPa 0,0 l/m 0,00 h 0,00 h 0 W/m 0,1 km/h (0 Bft) 97,13 %
05.01.2021 04:00 1,9 C 1,5 C 0,4 C 94 % 1015,8 hPa 0,0 l/m 0,00 h 0,00 h 0 W/m 0,1 km/h (0 Bft) 95,67 %
05.01.2021 05:00 1,9 C 1,7 C 0,5 C 94 % 1015,8 hPa 0,0 l/m 0,00 h 0,00 h 0 W/m 0,2 km/h (0 Bft) 95,02 %
05.01.2021 06:00 1,9 C 1,7 C 0,6 C 94 % 1016,0 hPa 0,0 l/m 0,00 h 0,00 h 0 W/m 0,1 km/h (0 Bft) 95,41 %
05.01.2021 07:00 1,9 C 1,7 C 0,6 C 94 % 1016,3 hPa 0,0 l/m 0,00 h 0,00 h 0 W/m 0,1 km/h (0 Bft) 97,98 %
05.01.2021 08:00 1,9 C 1,7 C 0,6 C 94 % 1016,4 hPa 0,0 l/m 0,00 h 0,00 h 4 W/m 0,3 km/h (0 Bft) 97,65 %
05.01.2021 09:00 2,0 C 1,7 C 0,6 C 94 % 1016,7 hPa 0,0 l/m 0,00 h 0,00 h 11 W/m 0,0 km/h (0 Bft) 98,86 %
05.01.2021 10:00 2,3 C 2,2 C 1,1 C 94 % 1016,8 hPa 0,0 l/m 0,00 h 0,00 h 22 W/m 0,1 km/h (0 Bft) 96,44 %
05.01.2021 11:00 2,4 C 2,2 C 1,2 C 94 % 1016,8 hPa 0,0 l/m 0,00 h 0,00 h 18 W/m 0,2 km/h (0 Bft) 96,22 %
05.01.2021 12:00 2,5 C 2,2 C 1,2 C 94 % 1016,6 hPa 0,0 l/m 0,00 h 0,00 h 33 W/m 0,3 km/h (0 Bft) 95,67 %
05.01.2021 13:00 2,6 C 2,2 C 1,2 C 94 % 1016,2 hPa 0,0 l/m 0,00 h 0,00 h 22 W/m 0,3 km/h (0 Bft) 97,51 %
05.01.2021 14:00 2,6 C 2,2 C 1,2 C 94 % 1016,2 hPa 0,0 l/m 0,00 h 0,00 h 13 W/m 0,3 km/h (0 Bft) 99,00 %
05.01.2021 15:00 2,5 C 1,8 C 0,7 C 94 % 1016,4 hPa 0,4 l/m 0,00 h 0,60 h 6 W/m 0,3 km/h (0 Bft) 97,29 %
05.01.2021 16:00 1,9 C 0,6 C -0,3 C 95 % 1016,6 hPa 0,8 l/m 0,00 h 1,00 h 0 W/m 0,1 km/h (0 Bft) 97,29 %
05.01.2021 17:00 1,7 C 1,0 C 0,0 C 96 % 1016,6 hPa 0,0 l/m 0,00 h 0,13 h 0 W/m 0,1 km/h (0 Bft) 96,66 %
05.01.2021 18:00 2,0 C 1,5 C 0,5 C 97 % 1016,7 hPa 0,0 l/m 0,00 h 0,00 h 0 W/m 0,0 km/h (0 Bft) 93,77 %
05.01.2021 19:00 2,2 C 1,7 C 0,6 C 97 % 1016,9 hPa 0,0 l/m 0,00 h 0,00 h 0 W/m 0,1 km/h (0 Bft) 96,51 %
05.01.2021 20:00 2,3 C 1,7 C 0,6 C 97 % 1016,8 hPa 0,0 l/m 0,00 h 0,00 h 0 W/m 0,2 km/h (0 Bft) 98,03 %
05.01.2021 21:00 2,2 C 1,7 C 0,6 C 97 % 1016,8 hPa 0,0 l/m 0,00 h 0,00 h 0 W/m 0,6 km/h (0 Bft) 96,32 %
05.01.2021 22:00 2,3 C 1,7 C 0,7 C 97 % 1016,8 hPa 0,0 l/m 0,00 h 0,00 h 0 W/m 0,1 km/h (0 Bft) 97,38 %
05.01.2021 23:00 2,5 C 2,0 C 1,2 C 98 % 1016,7 hPa 0,0 l/m 0,00 h 0,07 h 0 W/m 0,1 km/h (0 Bft) 98,51 %
06.01.2021 00:00 2,7 C 2,2 C 1,2 C 98 % 1016,6 hPa 0,0 l/m 0,00 h 0,43 h 0 W/m 0,1 km/h (0 Bft) 93,43 %
06.01.2021 01:00 2,9 C 2,2 C 1,6 C 98 % 1016,4 hPa 0,0 l/m 0,00 h 0,07 h 0 W/m 0,2 km/h (0 Bft) 97,28 %
06.01.2021 02:00 3,0 C 2,2 C 1,7 C 98 % 1016,2 hPa 0,2 l/m 0,00 h 0,47 h 0 W/m 0,1 km/h (0 Bft) 96,38 %
06.01.2021 03:00 3,1 C 2,2 C 1,7 C 98 % 1016,2 hPa 0,2 l/m 0,00 h 0,63 h 0 W/m 0,3 km/h (0 Bft) 95,23 %
06.01.2021 04:00 3,0 C 2,2 C 1,7 C 99 % 1016,1 hPa 0,0 l/m 0,00 h 0,08 h 0 W/m 0,1 km/h (0 Bft) 95,43 %
06.01.2021 05:00 3,0 C 2,2 C 1,7 C 99 % 1015,9 hPa 0,0 l/m 0,00 h 0,00 h 0 W/m 0,1 km/h (0 Bft) 97,79 %
06.01.2021 06:00 2,9 C 2,2 C 1,7 C 98 % 1015,8 hPa 0,0 l/m 0,00 h 0,00 h 0 W/m 0,1 km/h (0 Bft) 97,17 %
06.01.2021 07:00 2,9 C 2,2 C 1,7 C 98 % 1015,8 hPa 0,0 l/m 0,00 h 0,00 h 0 W/m 0,2 km/h (0 Bft) 95,96 %
06.01.2021 08:00 2,7 C 2,2 C 1,6 C 98 % 1016,1 hPa 0,0 l/m 0,00 h 0,00 h 9 W/m 0,1 km/h (0 Bft) 96,88 %
06.01.2021 09:00 2,7 C 2,2 C 1,7 C 98 % 1016,3 hPa 0,0 l/m 0,00 h 0,00 h 35 W/m 0,3 km/h (0 Bft) 96,78 %
06.01.2021 10:00 2,9 C 2,6 C 2,1 C 98 % 1016,5 hPa 0,0 l/m 0,00 h 0,00 h 68 W/m 0,8 km/h (0 Bft) 97,94 %
06.01.2021 11:00 3,0 C 2,7 C 2,3 C 97 % 1016,5 hPa 0,0 l/m 0,00 h 0,00 h 55 W/m 0,3 km/h (0 Bft) 97,81 %
06.01.2021 12:00 3,2 C 3,2 C 2,6 C 95 % 1016,0 hPa 0,0 l/m 0,00 h 0,00 h 97 W/m 0,6 km/h (0 Bft) 96,62 %
06.01.2021 13:00 3,4 C 3,1 C 2,2 C 91 % 1015,5 hPa 0,0 l/m 0,00 h 0,00 h 58 W/m 0,3 km/h (0 Bft) 95,02 %
06.01.2021 14:00 2,9 C 2,7 C 2,0 C 90 % 1015,3 hPa 0,0 l/m 0,00 h 0,00 h 40 W/m 0,5 km/h (0 Bft) 96,79 %
06.01.2021 15:00 2,7 C 2,3 C 1,7 C 91 % 1015,3 hPa 0,0 l/m 0,00 h 0,00 h 29 W/m 0,3 km/h (0 Bft) 95,21 %
06.01.2021 16:00 2,6 C 2,1 C 1,3 C 91 % 1015,3 hPa 0,0 l/m 0,00 h 0,00 h 8 W/m 0,2 km/h (0 Bft) 97,54 %
06.01.2021 17:00 2,3 C 1,7 C 0,9 C 91 % 1015,3 hPa 0,0 l/m 0,00 h 0,00 h 0 W/m 0,0 km/h (0 Bft) 98,79 %
06.01.2021 18:00 2,0 C 1,4 C 0,6 C 92 % 1015,4 hPa 0,0 l/m 0,00 h 0,00 h 0 W/m 0,1 km/h (0 Bft) 94,76 %
06.01.2021 19:00 1,6 C 0,9 C -0,1 C 92 % 1015,4 hPa 0,0 l/m 0,00 h 0,00 h 0 W/m 0,3 km/h (0 Bft) 99,43 %
06.01.2021 20:00 1,0 C 0,0 C -0,8 C 93 % 1015,5 hPa 0,0 l/m 0,00 h 0,00 h 0 W/m 0,1 km/h (0 Bft) 97,12 %
06.01.2021 21:00 0,8 C 0,5 C -0,5 C 94 % 1015,5 hPa 0,0 l/m 0,00 h 0,00 h 0 W/m 0,1 km/h (0 Bft) 96,80 %
06.01.2021 22:00 1,0 C 0,6 C -0,2 C 95 % 1015,3 hPa 0,0 l/m 0,00 h 0,00 h 0 W/m 0,0 km/h (0 Bft) 97,37 %
06.01.2021 23:00 1,0 C 0,6 C -0,3 C 95 % 1015,1 hPa 0,0 l/m 0,00 h 0,00 h 0 W/m 0,1 km/h (0 Bft) 95,10 %
07.01.2021 00:00 0,8 C 0,1 C -0,5 C 95 % 1014,8 hPa 0,0 l/m 0,00 h 0,00 h 0 W/m 0,1 km/h (0 Bft) 97,68 %
07.01.2021 01:00 0,9 C 0,6 C -0,5 C 96 % 1014,6 hPa 0,0 l/m 0,00 h 0,00 h 0 W/m 0,0 km/h (0 Bft) 98,79 %
07.01.2021 02:00 0,8 C 0,4 C -0,5 C 96 % 1014,4 hPa 0,0 l/m 0,00 h 0,00 h 0 W/m 0,1 km/h (0 Bft) 98,01 %
07.01.2021 03:00 0,8 C 0,6 C -0,4 C 97 % 1014,3 hPa 0,0 l/m 0,00 h 0,00 h 0 W/m 0,7 km/h (0 Bft) 98,22 %
07.01.2021 04:00 1,0 C 0,6 C 0,0 C 97 % 1014,0 hPa 0,0 l/m 0,00 h 0,00 h 0 W/m 0,2 km/h (0 Bft) 96,85 %
07.01.2021 05:00 1,2 C 0,8 C 0,0 C 97 % 1013,7 hPa 0,0 l/m 0,00 h 0,00 h 0 W/m 0,1 km/h (0 Bft) 96,68 %
07.01.2021 06:00 1,4 C 0,8 C 0,0 C 97 % 1013,3 hPa 0,2 l/m 0,00 h 0,23 h 0 W/m 0,2 km/h (0 Bft) 94,67 %
07.01.2021 07:00 1,2 C 0,6 C -0,0 C 97 % 1013,2 hPa 0,0 l/m 0,00 h 0,33 h 0 W/m 0,2 km/h (0 Bft) 95,51 %
07.01.2021 08:00 1,0 C 0,2 C -0,5 C 98 % 1013,3 hPa 0,2 l/m 0,00 h 0,83 h 4 W/m 0,2 km/h (0 Bft) 96,01 %
07.01.2021 09:00 0,9 C 0,3 C -0,3 C 98 % 1013,6 hPa 0,2 l/m 0,00 h 0,20 h 22 W/m 0,3 km/h (0 Bft) 97,09 %
07.01.2021 10:00 1,1 C 0,7 C 0,0 C 98 % 1013,5 hPa 0,0 l/m 0,00 h 0,20 h 38 W/m 0,6 km/h (0 Bft) 97,60 %
07.01.2021 11:00 1,5 C 1,1 C 0,6 C 98 % 1013,4 hPa 0,0 l/m 0,00 h 0,10 h 45 W/m 0,2 km/h (0 Bft) 98,51 %
07.01.2021 12:00 1,8 C 1,2 C 1,0 C 99 % 1012,8 hPa 0,2 l/m 0,00 h 0,53 h 52 W/m 1,2 km/h (1 Bft) 96,91 %
07.01.2021 13:00 2,0 C 1,7 C 1,2 C 99 % 1012,2 hPa 0,2 l/m 0,00 h 0,97 h 68 W/m 0,9 km/h (0 Bft) 99,79 %
07.01.2021 14:00 2,4 C 1,8 C 1,5 C 99 % 1012,0 hPa 0,0 l/m 0,00 h 0,20 h 54 W/m 0,4 km/h (0 Bft) 96,87 %
07.01.2021 15:00 2,4 C 1,7 C 1,2 C 98 % 1011,9 hPa 0,2 l/m 0,00 h 0,77 h 14 W/m 0,8 km/h (0 Bft) 96,87 %
07.01.2021 16:00 2,5 C 1,7 C 1,2 C 98 % 1012,0 hPa 0,2 l/m 0,00 h 0,77 h 8 W/m 1,0 km/h (0 Bft) 97,44 %
07.01.2021 17:00 2,3 C 1,5 C 1,2 C 98 % 1012,0 hPa 0,0 l/m 0,00 h 0,43 h 0 W/m 1,3 km/h (1 Bft) 94,32 %
07.01.2021 18:00 2,0 C 1,1 C 0,7 C 98 % 1012,0 hPa 0,4 l/m 0,00 h 0,87 h 0 W/m 2,1 km/h (1 Bft) 96,71 %
07.01.2021 19:00 1,9 C 1,1 C 0,6 C 97 % 1011,9 hPa 0,4 l/m 0,00 h 0,80 h 0 W/m 4,5 km/h (1 Bft) 96,03 %
07.01.2021 20:00 1,9 C 1,1 C 0,8 C 98 % 1012,0 hPa 0,4 l/m 0,00 h 1,00 h 0 W/m 4,4 km/h (1 Bft) 95,53 %
07.01.2021 21:00 1,9 C 1,1 C 0,6 C 98 % 1012,0 hPa 0,4 l/m 0,00 h 0,87 h 0 W/m 5,3 km/h (1 Bft) 98,44 %
07.01.2021 22:00 1,9 C 1,1 C 1,2 C 98 % 1011,9 hPa 0,4 l/m 0,00 h 0,93 h 0 W/m 4,3 km/h (1 Bft) 97,72 %
07.01.2021 23:00 1,9 C 1,1 C 0,8 C 98 % 1011,9 hPa 1,4 l/m 0,00 h 1,00 h 0 W/m 4,9 km/h (1 Bft) 98,43 %
08.01.2021 00:00 1,6 C 0,7 C 0,6 C 98 % 1011,9 hPa 1,2 l/m 0,00 h 1,00 h 0 W/m 1,4 km/h (1 Bft) 98,26 %
08.01.2021 01:00 1,1 C 0,1 C 0,1 C 98 % 1011,8 hPa 0,6 l/m 0,00 h 1,00 h 0 W/m 0,7 km/h (0 Bft) 97,94 %
08.01.2021 02:00 1,0 C 0,5 C 0,3 C 98 % 1012,0 hPa 0,4 l/m 0,00 h 0,80 h 0 W/m 0,4 km/h (0 Bft) 97,94 %
08.01.2021 03:00 1,1 C 0,6 C 0,6 C 99 % 1012,3 hPa 0,2 l/m 0,00 h 0,80 h 0 W/m 0,7 km/h (0 Bft) 97,93 %
08.01.2021 04:00 1,1 C 0,6 C 0,6 C 99 % 1012,5 hPa 0,0 l/m 0,00 h 0,93 h 0 W/m 0,4 km/h (0 Bft) 98,62 %
08.01.2021 05:00 1,2 C 0,6 C 0,6 C 99 % 1012,6 hPa 0,2 l/m 0,00 h 0,40 h 0 W/m 0,3 km/h (0 Bft) 94,36 %
08.01.2021 06:00 1,2 C 0,6 C 0,6 C 99 % 1012,8 hPa 0,2 l/m 0,00 h 0,97 h 0 W/m 0,2 km/h (0 Bft) 95,62 %
08.01.2021 07:00 1,0 C 0,5 C 0,6 C 99 % 1013,1 hPa 0,2 l/m 0,00 h 1,00 h 0 W/m 0,2 km/h (0 Bft) 97,22 %
08.01.2021 08:00 0,9 C 0,4 C 0,5 C 99 % 1013,8 hPa 0,0 l/m 0,00 h 0,17 h 4 W/m 0,3 km/h (0 Bft) 92,57 %
08.01.2021 09:00 1,0 C 0,7 C 0,6 C 99 % 1014,6 hPa 0,0 l/m 0,00 h 0,07 h 16 W/m 0,1 km/h (0 Bft) 97,13 %
08.01.2021 10:00 1,5 C 1,2 C 1,3 C 100 % 1015,1 hPa 0,0 l/m 0,00 h 0,17 h 40 W/m 0,1 km/h (0 Bft) 99,50 %
08.01.2021 11:00 2,0 C 1,9 C 1,9 C 100 % 1015,5 hPa 0,0 l/m 0,00 h 0,10 h 59 W/m 0,2 km/h (0 Bft) 94,69 %
08.01.2021 12:00 2,3 C 2,2 C 2,3 C 100 % 1015,5 hPa 0,2 l/m 0,00 h 0,20 h 76 W/m 0,2 km/h (0 Bft) 98,82 %
08.01.2021 13:00 2,5 C 2,3 C 2,4 C 100 % 1015,7 hPa 0,2 l/m 0,00 h 0,37 h 60 W/m 0,5 km/h (0 Bft) 98,60 %
08.01.2021 14:00 2,2 C 2,2 C 2,3 C 100 % 1015,9 hPa 0,2 l/m 0,00 h 0,37 h 69 W/m 0,3 km/h (0 Bft) 96,51 %
08.01.2021 15:00 2,4 C 1,9 C 2,2 C 100 % 1016,4 hPa 0,0 l/m 0,07 h 0,10 h 45 W/m 0,2 km/h (0 Bft) 99,43 %
08.01.2021 16:00 2,2 C 1,7 C 1,7 C 99 % 1017,0 hPa 0,0 l/m 0,00 h 0,00 h 13 W/m 0,2 km/h (0 Bft) 98,70 %
08.01.2021 17:00 2,0 C 1,1 C 1,7 C 99 % 1017,7 hPa 0,0 l/m 0,00 h 0,00 h 0 W/m 0,1 km/h (0 Bft) 94,94 %
08.01.2021 18:00 1,9 C 0,8 C 0,9 C 99 % 1018,4 hPa 0,0 l/m 0,00 h 0,00 h 0 W/m 0,0 km/h (0 Bft) 99,85 %
08.01.2021 19:00 1,2 C -0,3 C -0,5 C 99 % 1018,8 hPa 0,0 l/m 0,00 h 0,00 h 0 W/m 0,0 km/h (0 Bft) 97,72 %
08.01.2021 20:00 0,3 C -0,9 C -0,9 C 99 % 1019,5 hPa 0,0 l/m 0,00 h 0,00 h 0 W/m 0,0 km/h (0 Bft) 97,88 %
08.01.2021 21:00 -0,1 C -1,0 C -1,1 C 99 % 1020,3 hPa 0,0 l/m 0,00 h 0,00 h 0 W/m 0,0 km/h (0 Bft) 99,07 %
08.01.2021 22:00 -0,0 C -0,6 C -0,7 C 99 % 1020,5 hPa 0,0 l/m 0,00 h 0,00 h 0 W/m 0,0 km/h (0 Bft) 97,44 %
08.01.2021 23:00 0,0 C -0,6 C -0,5 C 99 % 1020,5 hPa 0,0 l/m 0,00 h 0,00 h 0 W/m 0,0 km/h (0 Bft) 98,15 %
09.01.2021 00:00 0,1 C -0,6 C -0,5 C 99 % 1020,7 hPa 0,0 l/m 0,00 h 0,00 h 0 W/m 0,0 km/h (0 Bft) 96,15 %
09.01.2021 01:00 0,2 C -0,2 C -0,3 C 99 % 1021,0 hPa 0,0 l/m 0,00 h 0,00 h 0 W/m 0,0 km/h (0 Bft) 95,80 %
09.01.2021 02:00 0,3 C -0,2 C -0,2 C 99 % 1021,4 hPa 0,0 l/m 0,00 h 0,00 h 0 W/m 0,1 km/h (0 Bft) 95,87 %
09.01.2021 03:00 0,3 C -0,1 C -0,1 C 99 % 1022,0 hPa 0,0 l/m 0,00 h 0,00 h 0 W/m 0,0 km/h (0 Bft) 94,23 %
09.01.2021 04:00 0,2 C -0,6 C -0,5 C 99 % 1022,0 hPa 0,0 l/m 0,00 h 0,00 h 0 W/m 0,1 km/h (0 Bft) 95,95 %
09.01.2021 05:00 -0,1 C -1,0 C -1,1 C 99 % 1022,1 hPa 0,0 l/m 0,00 h 0,00 h 0 W/m 0,0 km/h (0 Bft) 95,89 %
09.01.2021 06:00 -0,2 C -1,1 C -1,0 C 99 % 1022,5 hPa 0,0 l/m 0,00 h 0,00 h 0 W/m 0,0 km/h (0 Bft) 98,41 %
09.01.2021 07:00 -0,4 C -0,9 C -0,8 C 99 % 1023,0 hPa 0,0 l/m 0,00 h 0,00 h 0 W/m 0,0 km/h (0 Bft) 97,05 %
09.01.2021 08:00 -0,2 C -0,6 C -0,5 C 99 % 1023,4 hPa 0,0 l/m 0,00 h 0,00 h 6 W/m 0,1 km/h (0 Bft) 97,58 %
09.01.2021 09:00 -0,1 C -0,6 C -0,4 C 99 % 1023,8 hPa 0,0 l/m 0,00 h 0,00 h 26 W/m 0,0 km/h (0 Bft) 99,07 %
09.01.2021 10:00 -0,1 C -0,5 C -0,3 C 99 % 1024,4 hPa 0,0 l/m 0,00 h 0,00 h 43 W/m 0,3 km/h (0 Bft) 95,59 %
09.01.2021 11:00 0,1 C -0,1 C 0,0 C 99 % 1024,6 hPa 0,2 l/m 0,00 h 0,00 h 51 W/m 0,0 km/h (0 Bft) 97,79 %
09.01.2021 12:00 0,3 C 0,2 C 0,6 C 99 % 1024,4 hPa 0,0 l/m 0,00 h 0,00 h 71 W/m 0,0 km/h (0 Bft) 98,28 %
09.01.2021 13:00 1,0 C 1,0 C 1,2 C 100 % 1024,2 hPa 0,0 l/m 0,00 h 0,07 h 76 W/m 0,2 km/h (0 Bft) 96,21 %
09.01.2021 14:00 1,4 C 1,3 C 1,4 C 100 % 1023,9 hPa 0,0 l/m 0,00 h 0,00 h 65 W/m 0,1 km/h (0 Bft) 97,25 %
09.01.2021 15:00 1,5 C 1,3 C 1,4 C 100 % 1024,1 hPa 0,0 l/m 0,00 h 0,00 h 37 W/m 0,1 km/h (0 Bft) 99,12 %
09.01.2021 16:00 1,5 C 1,1 C 1,2 C 100 % 1024,4 hPa 0,0 l/m 0,00 h 0,00 h 10 W/m 0,1 km/h (0 Bft) 96,51 %
09.01.2021 17:00 1,4 C 0,8 C 1,1 C 100 % 1024,7 hPa 0,0 l/m 0,00 h 0,00 h 0 W/m 0,1 km/h (0 Bft) 99,72 %
09.01.2021 18:00 0,9 C 0,2 C 0,6 C 100 % 1024,8 hPa 0,0 l/m 0,00 h 0,00 h 0 W/m 0,4 km/h (0 Bft) 98,34 %
09.01.2021 19:00 0,6 C 0,0 C 0,6 C 99 % 1025,0 hPa 0,0 l/m 0,00 h 0,10 h 0 W/m 0,0 km/h (0 Bft) 97,22 %
09.01.2021 20:00 0,6 C 0,0 C 0,6 C 100 % 1025,1 hPa 0,0 l/m 0,00 h 0,00 h 0 W/m 0,0 km/h (0 Bft) 99,50 %
09.01.2021 21:00 0,5 C 0,0 C 0,4 C 100 % 1025,3 hPa 0,0 l/m 0,00 h 0,00 h 0 W/m 0,0 km/h (0 Bft) 95,79 %
09.01.2021 22:00 0,5 C 0,0 C 0,0 C 100 % 1025,4 hPa 0,0 l/m 0,00 h 0,00 h 0 W/m 0,1 km/h (0 Bft) 97,86 %
09.01.2021 23:00 0,5 C 0,0 C 0,0 C 100 % 1025,4 hPa 0,0 l/m 0,00 h 0,00 h 0 W/m 0,0 km/h (0 Bft) 96,69 %
10.01.2021 00:00 0,4 C 0,0 C 0,0 C 100 % 1025,3 hPa 0,0 l/m 0,00 h 0,07 h 0 W/m 0,1 km/h (0 Bft) 97,44 %
10.01.2021 01:00 0,5 C 0,0 C 0,0 C 100 % 1025,2 hPa 0,0 l/m 0,00 h 0,00 h 0 W/m 0,1 km/h (0 Bft) 98,37 %
10.01.2021 02:00 0,4 C -0,1 C 0,0 C 100 % 1025,4 hPa 0,0 l/m 0,00 h 0,00 h 0 W/m 0,1 km/h (0 Bft) 96,63 %
10.01.2021 03:00 0,3 C -0,3 C -0,2 C 100 % 1025,3 hPa 0,0 l/m 0,00 h 0,00 h 0 W/m 0,0 km/h (0 Bft) 98,22 %
10.01.2021 04:00 -0,2 C -1,0 C -0,9 C 100 % 1025,0 hPa 0,0 l/m 0,00 h 0,00 h 0 W/m 0,0 km/h (0 Bft) 98,25 %
10.01.2021 05:00 -0,7 C -1,5 C -1,2 C 100 % 1024,9 hPa 0,0 l/m 0,00 h 0,00 h 0 W/m 0,0 km/h (0 Bft) 97,92 %
10.01.2021 06:00 -0,9 C -1,2 C -1,1 C 100 % 1025,0 hPa 0,0 l/m 0,00 h 0,00 h 0 W/m 0,1 km/h (0 Bft) 98,23 %
10.01.2021 07:00 -0,9 C -1,6 C -1,1 C 99 % 1025,0 hPa 0,0 l/m 0,00 h 0,00 h 0 W/m 0,0 km/h (0 Bft) 95,02 %
10.01.2021 08:00 -0,9 C -1,4 C -1,1 C 100 % 1025,2 hPa 0,0 l/m 0,00 h 0,00 h 5 W/m 0,0 km/h (0 Bft) 95,06 %
10.01.2021 09:00 -0,7 C -1,0 C -0,7 C 100 % 1025,4 hPa 0,0 l/m 0,00 h 0,00 h 14 W/m 0,1 km/h (0 Bft) 95,94 %
10.01.2021 10:00 -0,3 C -0,3 C -0,2 C 100 % 1025,6 hPa 0,0 l/m 0,00 h 0,00 h 39 W/m 0,1 km/h (0 Bft) 95,30 %
10.01.2021 11:00 0,3 C 0,5 C 0,7 C 100 % 1025,6 hPa 0,0 l/m 0,00 h 0,00 h 66 W/m 0,0 km/h (0 Bft) 96,13 %
10.01.2021 12:00 1,1 C 2,0 C 2,0 C 100 % 1025,2 hPa 0,0 l/m 0,07 h 0,00 h 111 W/m 0,0 km/h (0 Bft) 94,64 %
10.01.2021 13:00 2,2 C 3,8 C 3,8 C 100 % 1024,7 hPa 0,0 l/m 0,20 h 0,00 h 142 W/m 0,0 km/h (0 Bft) 98,78 %
10.01.2021 14:00 2,6 C 3,0 C 3,2 C 100 % 1024,4 hPa 0,0 l/m 0,00 h 0,00 h 63 W/m 0,0 km/h (0 Bft) 98,64 %
10.01.2021 15:00 3,0 C 4,2 C 3,5 C 100 % 1024,5 hPa 0,0 l/m 0,53 h 0,00 h 81 W/m 0,1 km/h (0 Bft) 97,73 %
10.01.2021 16:00 3,0 C 2,6 C 2,5 C 97 % 1024,4 hPa 0,0 l/m 0,17 h 0,00 h 20 W/m 0,0 km/h (0 Bft) 98,59 %
10.01.2021 17:00 2,1 C 1,1 C 1,2 C 95 % 1024,4 hPa 0,0 l/m 0,00 h 0,00 h 0 W/m 0,1 km/h (0 Bft) 97,80 %
10.01.2021 18:00 1,4 C 0,6 C 0,5 C 96 % 1024,3 hPa 0,0 l/m 0,00 h 0,00 h 0 W/m 0,0 km/h (0 Bft) 98,16 %
10.01.2021 19:00 1,0 C 0,6 C 0,6 C 96 % 1024,4 hPa 0,0 l/m 0,00 h 0,00 h 0 W/m 0,0 km/h (0 Bft) 99,57 %
10.01.2021 20:00 0,8 C 0,6 C 0,4 C 96 % 1024,2 hPa 0,0 l/m 0,00 h 0,00 h 0 W/m 0,0 km/h (0 Bft) 96,52 %
10.01.2021 21:00 0,6 C 0,5 C 0,4 C 96 % 1024,2 hPa 0,0 l/m 0,00 h 0,00 h 0 W/m 0,0 km/h (0 Bft) 98,02 %
10.01.2021 22:00 0,5 C 0,0 C 0,0 C 95 % 1024,0 hPa 0,0 l/m 0,00 h 0,00 h 0 W/m 0,1 km/h (0 Bft) 99,22 %
10.01.2021 23:00 0,5 C 0,0 C 0,1 C 95 % 1024,0 hPa 0,0 l/m 0,00 h 0,00 h 0 W/m 0,0 km/h (0 Bft) 96,41 %
Min-Datum _ 10.01.21 10.01.21 10.01.21 06.01.21 07.01.21 - - - - 04.01.21 06.01.21
_ Min-Zeit 06:02 05:14 05:28 13:42 22:36 - - - - 00:00 00:02
Minimum _ -1,0 C -1,7 C -1,6 C 90 % 1011,8 hPa - - - - 0,0 km/h (0 Bft) 13,33 %
Max-Datum _ 06.01.21 10.01.21 10.01.21 08.01.21 10.01.21 07.01.21 08.01.21 06.01.21 10.01.21 07.01.21 04.01.21
_ Max-Zeit 12:58 13:10 13:10 10:06 10:40 23:00 15:50 04:08 13:12 20:48 00:30
Maximum _ 3,5 C 5,6 C 5,6 C 100 % 1025,7 hPa 1,4 l/m 0,03 h 0,08 h 290 W/m 14,5 km/h
S-SO (3 Bft)
100,00 %
Durchschnitt _ 1,5 C 1,0 C 0,6 C 97 % 1017,9 hPa #10,8 l/m #1:02 h #24:51 h 38 W/m 0,3 km/h (0 Bft) 97,02 %
© 2021 W. Hausmann